Regional Weather Roundup
Issued by NWS Grand Forks, ND

Home | Current Version | Previous Version | Text Only | Print | Product List | Glossary On
Versions: 1 2 3 4 5 6 7 8 9 10 11 12 13 14 15 16 17 18 19 20 21 22 23 24 25 26 27 28 29 30 31 32 33 34 35 36 37 38 39 40 41 42 43 44 45 46 47 48 49 50
656
ASUS43 KFGF 230531
RWRFGF
PRAIRIE TO PINES  WEATHER ROUNDUP
NATIONAL WEATHER SERVICE EASTERN NORTH DAKOTA/GRAND FORKS ND
1200 AM CDT THU MAR 23 2017

 **SATELLITE DATA USED TO AUGMENT SKY COVER AT AUTOMATED STATIONS**
 *****  WEATHER ACROSS EASTERN NORTH DAKOTA  *****

CITY           SKY/WX    TMP DP  RH WIND       PRES   REMARKS
GRAND FORKS    CLOUDY    35  21  56 S18G25    30.04F WCI  24
GRAND FRKS AFB CLOUDY    33  25  70 S21G26    30.02F WCI  21
DEVILS LAKE    FAIR      30  25  81 SE17G23   29.93F WCI  18
FARGO          MOCLDY    36  24  62 S23G36    30.06F
WAHPETON ARPT  FAIR      34  23  64 SE17G24   30.08F WCI  23
$$

 ***** WEATHER ACROSS CENTRAL AND WESTERN NORTH DAKOTA  *****

CITY           SKY/WX    TMP DP  RH WIND       PRES   REMARKS
BISMARCK       FAIR      34  27  75 E7        29.87F
MINOT          FAIR      35  29  78 S9        29.82S
JAMESTOWN      FAIR      30  24  78 SE10      29.94F WCI  21
MINOT AFB      FAIR      32  29  88 S8        29.81S WCI  25
GARRISON         N/A     32  28  85 SE5       29.83S
WILLISTON      FAIR      32  29  88 CALM      29.78F
DICKINSON      FAIR      35  30  82 S9        29.76F
HETTINGER      FAIR      34  29  82 E5        29.78F
$$

 *****  OTHER AIRPORT OBSERVATIONS IN OUR AREA  *****

CITY           SKY/WX    TMP DP  RH WIND       PRES   REMARKS
WALHALLA       NOT AVBL
GRAFTON AIRPOR CLOUDY    32  27  80 S16       30.04F WCI  21
VALLEY CITY AR CLOUDY    30  30 100 SE20G25   29.99F WCI  18
CANDO          NOT AVBL
CAVALIER APRT  NOT AVBL
GWINNER        CLEAR     30  27  86 MISG      30.02F
SHEYENNE NWR     N/A     33  24  70 S16       29.95S WCI  23
ROLLA          FAIR      27  27 100 S13       29.90R WCI  16
 ***** THE ABOVE OBSERVATIONS ARE NON NWS ARE NOT QUALITY
       CONTROLLED AND MAY MIS-REPORT RAIN FOR SNOW...
$$

  *****  WEATHER ACROSS NORTHERN MINNESOTA  *****

CITY           SKY/WX    TMP DP  RH WIND       PRES   REMARKS
FLAG ISLAND    CLOUDY    28  21  74 SE21      30.10F WCI  15
WARROAD        CLOUDY    32  23  69 SE12G18   30.10F WCI  23
ROSEAU         CLOUDY    34  23  64 SE15      30.08F WCI  24
HALLOCK        CLOUDY    32  25  74 S16       30.03F WCI  21
THF RVR FALLS    N/A    N/A N/A N/A MISG        N/A
BAUDETTE       CLOUDY    30  21  69 SE12      30.13F WCI  20
WASKISH        CLOUDY    32  19  59 SE6G18    30.14F
CROOKSTON      CLOUDY    34  25  69 S15       30.07F WCI  24
STEPHEN NDAWN    N/A     34  23  64 S15         N/A  WCI  24
GREENBUSH NDAW   N/A     30  21  69 SE12        N/A  WCI  21
$$
  *****  WEATHER ACROSS CENTRAL AND WEST MINNESOTA  *****

CITY           SKY/WX    TMP DP  RH WIND       PRES   REMARKS
FOSSTON        CLOUDY    32  19  59 S17G24    30.09F WCI  21
BEMIDJI        CLOUDY    32  17  54 SE15G22   30.13F WCI  22
PARK RAPIDS    CLOUDY    33  17  51 S14       30.14F WCI  23
ELBOW LAKE     CLOUDY    34  23  64 SE20G26   30.12F WCI  23
WADENA         CLOUDY    34  21  60 S15       30.14F WCI  24
DETROIT LAKES  CLOUDY    34  23  64 S18       30.10F WCI  23
MOORHEAD       MOCLDY    36  23  60 S24G32    30.07F
FERGUS FALLS   CLOUDY    36  23  60 S22G29    30.14F
MORRIS MN      CLOUDY    36  25  64 SE21G26   30.11F
STAPLES        CLOUDY    34  18  51 SE14      30.17S WCI  24
$$
  *****  WEATHER ELSEWHERE ACROSS MINNESOTA  *****

CITY           SKY/WX    TMP DP  RH WIND       PRES   REMARKS
DULUTH         FLURRIES  29  21  72 E12       30.26F WCI  19
INTRNTL FALLS  FLURRIES  30  20  66 S10G16    30.21R WCI  21
ELY            CLOUDY    25  16  68 SE7       30.26F WCI  17
CLOQUET        CLOUDY    30  18  59 SE6       30.25F WCI  24
WHEATON        CLOUDY    36  25  64 SE22G30   30.09F
BRAINERD       CLOUDY    33  15  47 SE8       30.20F
HIBBING        CLOUDY    28  15  58 S9        30.23F WCI  19
ALEXANDRIA     CLOUDY    35  21  56 S16       30.16S
SAINT CLOUD    CLOUDY    35  16  45 SE15      30.21F
MINNEAPOLIS    CLOUDY    37  15  40 SE13      30.27F
$$

  *****  WEATHER ACROSS SOUTH DAKOTA  *****

CITY           SKY/WX    TMP DP  RH WIND       PRES   REMARKS
SIOUX FALLS    CLOUDY    39  27  62 S14G24    30.10S
BROOKINGS      CLOUDY    37  25  61 S21G29    30.07F
WATERTOWN      FAIR      35  25  66 S22G30    30.03F WCI  23
HURON          FAIR      39  28  64 SE18G28   29.98F
SISSETON         N/A     34  28  79 S17       30.05F WCI  23
ABERDEEN       FAIR      35  25  66 S18       29.96F WCI  24
MITCHELL       CLOUDY    42  29  59 SE22G29   30.02F
PIERRE         FAIR      47  30  51 S16       29.85F
MOBRIDGE       FAIR      40  26  57 SE17G25   29.81F
RAPID CITY     FAIR      44  38  79 S5        29.76F
$$

  *****  SOME WEATHER IN NEARBY STATES *****

CITY           SKY/WX    TMP DP  RH WIND       PRES   REMARKS
GLASGOW MT     FAIR      42  35  76 SE9       29.74F
GREAT FALLS MT FAIR      41  25  53 W3        29.80R
CHEYENNE WY    FAIR      54  35  48 SE14      29.84F
SCOTTSBLUFF NE CLOUDY    50  36  58 E20       29.81F
OMAHA NE       CLOUDY    46  24  42 SE22      30.15F
DES MOINES IA  MOCLDY    42  18  37 SE14      30.27R
DAVENPORT IA   FAIR      35  19  52 SE17      30.38F WCI  25
CHICAGO IL     FAIR      31  20  63 NE3       30.48R
EAU CLAIRE WI  CLOUDY    34  11  38 SE8       30.33F
LA CROSSE WI   CLOUDY    38  15  39 SE10      30.35F
$$

  *****  SOME NATIONAL WEATHER *****

CITY           SKY/WX    TMP DP  RH WIND       PRES   REMARKS
LA GUARDIA NY  FAIR      26   3  37 NW16G26   30.47R WCI  14
RALEIGH NC     FAIR      39  16  39 E7        30.45R
ATLANTA GA     FAIR      54  26  34 NE8       30.28R
NEW ORLEANS LA FAIR      67  63  87 CALM      30.16F
OKLAHOMA CITY  MOCLDY    63  57  81 SE20G28   30.04F
ALBUQUERQUE NM MOCLDY    63  14  15 SE10      29.93F
SALT LAKE CITY CLOUDY    51  43  74 N10       29.72F
LOS ANGELES CA FAIR      58  50  75 W21       29.99S
BOISE ID       FAIR      49  38  65 NW9       29.90R
SEATTLE WA     FAIR      44  38  79 S9        30.06R
$$

*** WEATHER ACROSS MANITOBA...SASKATCHEWAN AND ONTARIO ***
                ***ONTARIO***

CITY           SKY/WX    TMP DP  RH WIND       PRES   REMARKS
GERALDTON      CLEAR      7  -4  61 SW3       30.35F
THUNDER BAY    CLOUDY    23  18  80 N2        30.38F
SIOUX LOOKOUT  CLOUDY    28   5  37 S6        30.18F WCI  22
TORONTO        CLEAR     19   9  63 NW8       30.53S WCI   9
BIG TROUT LK   CLOUDY    14  -4  44 S5        30.17F WCI   6
PICKLE LAKE    NOT AVBL
DRYDEN         FLURRIES  30  16  55 S20G26    30.16F WCI  18
KENORA         CLOUDY    30  14  51 S14G23    30.11F WCI  20
$$
                *** MANITOBA***

CITY           SKY/WX    TMP DP  RH WIND       PRES   REMARKS
BRANDON        CLOUDY    28  25  86 S7        29.89F WCI  21
DAUPHIN        CLEAR     30  23  74 S6        29.83F WCI  24
ISLAND LAKE    CLOUDY    28   7  40 S8        30.00F WCI  20
PILOT MOUND      N/A     27  23  86 S18         N/A  WCI  13
THE PAS        FLURRIES  23  19  86 SE18      29.72F WCI   9
THOMPSON       LGT SNOW  25  18  74 S9G21     29.87F DRFTSNOWWCI  15
WINNIPEG       CLOUDY    32  21  64 S18G28    30.01F WCI  20
LYNN LAKE      LGT SNOW  19  18  93 S8        29.76F WCI   9
CHURCHILL      MOCLDY     5  -2  72 S9        30.00F WCI  -9
GILLAM         CLEAR     21   0  39 SE6       29.98F WCI  14
$$
                ***SASKATCHEWAN***

CITY           SKY/WX    TMP DP  RH WIND       PRES   REMARKS
ESTEVAN        PTCLDY    32  30  93 SE8       29.75F WCI  25
KINDERSLEY     PTCLDY    32  30  93 NW7       29.70R
LLOYDMINSTER   MOCLDY    21  21 100 W8        29.67R WCI  12
PRINCE ALBERT  FLURRIES  27  23  86 W10       29.59R WCI  17
REGINA         CLEAR     34  30  86 SE9G17    29.68S
YORKTON        CLEAR     28  27  93 S17       29.69F WCI  16
N. BATTLEFORD  MOCLDY    28  28 100 NW14G20   29.69R WCI  17
LA RONGE       LGT SNOW  19  18  93 NE7       29.63F WCI  10
SASKATOON      PTCLDY    34  30  86 W12       29.66R
SWIFT CURRENT  PTCLDY    36  32  87 SW8       29.70R
$$
NOTE: THESE ARE AUTOMATED STATIONS WITH LIMITED QUALITY CONTROL
      "FAIR" INDICATES FEW OR NO CLOUDS BELOW 12,000 FEET WITH NO
      SIGNIFICANT WEATHER AND/OR OBSTRUCTIONS TO VISIBILITY.
      SKY/WX - SKY CONDITION AND SIGNIFICANT WEATHER.
      TMP - AIR TEMPERATURE.    DP   - DEWPOINT TEMPERATURE.
      RH  - RELATIVE HUMIDITY.  PRES - PRESSURE.
      HX  - HEAT INDEX.         WCI  - WIND CHILL INDEX.
$




USA.gov is the U.S. government's official web portal to all federal, state and local government web resources and services.